Location: Nied?wied?
(53.3665°N, 14.8184°E)
Time: 19:13:14
(UTC+00:00)

ISS - Pass Details

Date: 19 May 2021
Orbit: 417 x 422 km, 51.6° (Epoch: 14 June)

Event Time Altitude Azimuth Distance (km) Brightness Sun altitude
Rises 00:06:23 0° 279° (W) 2,373 0.0 -15.3°
Reaches altitude 10° 00:08:44 10° 265° (W) 1,507 -1.2 -15.2°
Enters shadow 00:09:02 12° 262° (W) 1,408 -1.3 -15.2°
